Lake Wallenpaupack Weather Center

Moon Phase Calendar



Lake Wallenpaupack Water Level
Online Cameras

 


      

Current Conditions in Tanglewood
10/27/2021 6:13:10 AM

52°F
Feels Like 49
Clouds
Humidity
47%
Pressure
29.71"
Wind
13.5 mph (NNW)
Dew Point
32°F
UV Index
0/10 (Low)
Visibility
6 mi

Hourly Forecast

Date & Time Wed, Oct 27
6:00 AM
Wed, Oct 27
7:00 AM
Wed, Oct 27
8:00 AM
Wed, Oct 27
9:00 AM
Wed, Oct 27
10:00 AM
Wed, Oct 27
11:00 AM
Wed, Oct 27
12:00 PM
Wed, Oct 27
1:00 PM
Wed, Oct 27
2:00 PM
Wed, Oct 27
3:00 PM
Wed, Oct 27
4:00 PM
Wed, Oct 27
5:00 PM
Wed, Oct 27
6:00 PM
Wed, Oct 27
7:00 PM
Wed, Oct 27
8:00 PM
Wed, Oct 27
9:00 PM
Wed, Oct 27
10:00 PM
Wed, Oct 27
11:00 PM
Thu, Oct 28
12:00 AM
Thu, Oct 28
1:00 AM
Thu, Oct 28
2:00 AM
Thu, Oct 28
3:00 AM
Thu, Oct 28
4:00 AM
Thu, Oct 28
5:00 AM
Thu, Oct 28
6:00 AM
Thu, Oct 28
7:00 AM
Thu, Oct 28
8:00 AM
Thu, Oct 28
9:00 AM
Thu, Oct 28
10:00 AM
Thu, Oct 28
11:00 AM
Thu, Oct 28
12:00 PM
Thu, Oct 28
1:00 PM
Thu, Oct 28
2:00 PM
Thu, Oct 28
3:00 PM
Thu, Oct 28
4:00 PM
Thu, Oct 28
5:00 PM
Thu, Oct 28
6:00 PM
Thu, Oct 28
7:00 PM
Thu, Oct 28
8:00 PM
Thu, Oct 28
9:00 PM
Thu, Oct 28
10:00 PM
Thu, Oct 28
11:00 PM
Fri, Oct 29
12:00 AM
Fri, Oct 29
1:00 AM
Fri, Oct 29
2:00 AM
Fri, Oct 29
3:00 AM
Fri, Oct 29
4:00 AM
Fri, Oct 29
5:00 AM
Condition
Clouds

Clouds

Clouds

Clouds

Clouds

Clouds

Clouds

Clouds

Clouds

Clouds

Clouds

Clouds

Clouds

Clouds

Clouds

Clouds

Clouds

Clouds

Clouds

Clouds

Clouds

Clear

Clear

Clear

Clear

Clear

Clear

Clear

Clear

Clear

Clear

Clear

Clouds

Clouds

Clouds

Clouds

Clouds

Clouds

Clouds

Clouds

Clouds

Clouds

Clouds

Clouds

Clouds

Clouds

Clouds

Clouds
Temperature 52°F52°F51°F51°F51°F54°F55°F56°F56°F56°F55°F53°F50°F48°F47°F46°F45°F44°F43°F42°F42°F42°F41°F41°F40°F40°F41°F45°F50°F53°F56°F58°F58°F59°F57°F55°F51°F49°F46°F46°F45°F45°F44°F44°F44°F43°F45°F45°F
Feels Like 49°F49°F49°F49°F50°F52°F54°F55°F55°F55°F54°F52°F49°F44°F44°F43°F43°F41°F40°F40°F40°F40°F40°F41°F40°F40°F41°F45°F50°F51°F54°F56°F57°F57°F56°F54°F50°F47°F45°F44°F43°F43°F42°F41°F40°F40°F41°F40°F
Cloudiness 100%100%100%100%100%98%85%86%88%100%100%100%78%65%64%100%99%67%50%40%33%0%0%0%0%0%0%0%1%1%3%4%16%56%73%82%85%86%88%100%98%98%98%98%98%100%99%99%
Visibility 6 mi6 mi6 mi6 mi6 mi6 mi6 mi6 mi6 mi6 mi6 mi6 mi6 mi6 mi6 mi6 mi6 mi6 mi6 mi6 mi6 mi6 mi6 mi6 mi6 mi6 mi6 mi6 mi6 mi6 mi6 mi6 mi6 mi6 mi6 mi6 mi6 mi6 mi6 mi6 mi6 mi6 mi6 mi6 mi6 mi6 mi6 mi6 mi
Precipitation 13%13%13%0%0%0%0%0%0%0%0%0%0%0%0%0%0%0%0%0%0%0%0%0%0%0%0%0%0%0%0%0%0%0%0%0%0%0%0%0%0%0%0%0%0%0%0%0%
Humidity 47%57%66%74%81%83%76%72%71%73%76%80%84%87%87%88%91%93%93%93%93%94%93%94%93%93%91%81%72%66%64%63%63%65%69%78%84%90%94%94%95%96%97%97%97%97%94%93%
Dew Point 32°F37°F40°F43°F46°F48°F48°F47°F47°F47°F47°F47°F45°F44°F43°F42°F42°F41°F40°F40°F40°F39°F39°F38°F38°F38°F38°F39°F40°F42°F43°F45°F46°F46°F47°F47°F46°F45°F44°F43°F43°F43°F43°F42°F42°F42°F43°F42°F
Pressure 29.71"29.71"29.71"29.71"29.74"29.74"29.74"29.77"29.77"29.77"29.8"29.8"29.83"29.85"29.88"29.88"29.88"29.88"29.88"29.91"29.91"29.94"29.94"29.94"29.94"29.94"29.97"29.97"29.94"29.94"29.94"29.91"29.88"29.88"29.88"29.88"29.91"29.94"29.94"29.94"29.94"29.94"29.94"29.94"29.94"29.94"29.91"29.91"
Wind Speed 13.5 mph13.2 mph14.1 mph12.9 mph11.8 mph12.2 mph12.9 mph12.7 mph11.9 mph10.8 mph9.6 mph9.2 mph9.6 mph8.8 mph7.7 mph5.7 mph4.4 mph4.3 mph4.5 mph4 mph3.5 mph3.5 mph3.2 mph2.6 mph2.4 mph1.7 mph1.8 mph1.4 mph2 mph2.5 mph3.6 mph4.2 mph4.6 mph4.9 mph5 mph5.1 mph5.6 mph4.8 mph4 mph3.9 mph4 mph4.1 mph4.2 mph4.4 mph5.5 mph6.1 mph8.6 mph10 mph
Wind
Direction
339°
NNW
331°
NNW
323°
NW
326°
NW
327°
NNW
328°
NNW
335°
NNW
339°
NNW
341°
NNW
339°
NNW
334°
NNW
331°
NNW
328°
NNW
329°
NNW
333°
NNW
325°
NW
311°
NW
307°
NW
303°
WNW
305°
NW
304°
NW
299°
WNW
301°
WNW
303°
WNW
305°
NW
333°
NNW

N
61°
ENE
95°
E
140°
SE
155°
SSE
158°
SSE
164°
SSE
158°
SSE
153°
SSE
126°
SE
127°
SE
128°
SE
126°
SE
115°
ESE
125°
SE
119°
ESE
117°
ESE
104°
ESE
104°
ESE
121°
ESE
104°
ESE
103°
ESE

Daily Forecast

Date High Low Precip. Humidity
Today
Oct 27

Rain
56 °F
44 °F
99%
76%
Thursday
Oct 28

Clear
59 °F
40 °F
0%
64%
Friday
Oct 29

Rain
50 °F
40 °F
100%
83%
Saturday
Oct 30

Rain
54 °F
46 °F
100%
98%
Sunday
Oct 31

Rain
55 °F
48 °F
75%
90%
Monday
Nov 1

Clear
58 °F
46 °F
0%
78%
Tuesday
Nov 2

Rain
54 °F
46 °F
83%
79%
Wednesday
Nov 3

Clouds
50 °F
36 °F
0%
72%
Thursday
Nov 4

Clouds
44 °F
33 °F
0%
65%
Friday
Nov 5

Clouds
46 °F
31 °F
0%
57%
Saturday
Nov 6

Clear
49 °F
29 °F
0%
48%
Sunday
Nov 7

Clear
52 °F
30 °F
0%
50%
Monday
Nov 8

Clouds
51 °F
33 °F
0%
59%
Tuesday
Nov 9

Rain
60 °F
45 °F
100%
94%
Wednesday
Nov 10

Rain
51 °F
38 °F
100%
91%
Thursday
Nov 11

Clouds
41 °F
32 °F
0%
76%

Temperature 8-14 Day Outlook



Precipitation 8-14 Day Outlook




Quick Links
Lake Wallenpaupack News
Lake Wallenpaupack Photos
Lake Wallenpaupack Videos




About Us
Contact Us
Site Map
Search Site
Advertise With Us
   
Wallenpaupack.USLakes.info
THE LAKE WALLENPAUPACK WEBSITE

Copyright 2021, Lakes Online
Privacy    |    Legal